Find Geely Xingzuo 04 zu 08 xing

NORAD ID: 65126 Int'l Des: 2025-170 Owner: GEESP Country: CN Constellation: geesatcom operational
LEOCIRCULAR

实时位置

正在加载3D地球...

关于 Geely Xingzuo 04 zu 08 xing

正在加载描述...

即将过境

Passes for default location (London). Set your location on the main map for personalized predictions.

高度历史

Loading altitude history...

两行轨道根数

1 65126U 25170H 26106.22607353 .00001099 00000-0 16241-3 0 9994
2 65126 49.9677 53.9888 0021049 95.0017 265.3324 14.82677770 37861
Epoch: Apr 16, 2026 • Age: 9 hours

当前状态

高度 629.9 km
速度 7.54 km/s
星下点 -18.22°S, 172.94°W
发射日期 Aug 8, 2025
运行时间 0.6 years
类型 other

技术详情

分类 Payload
质量 130.00 kg
干质量 130.00 kg
总质量 130.00 kg
长度 1.00 m
直径 0.50 m
跨度 2.00 m
形状 Box + 2 pan
制造商 GWCG
平台类型 GPS100
阶段状态 In Orbit
所有者/国家 GEESP/CN

Most Searched